User: anonymous   Login
Location: Unspecified
(0.0000°N, 0.0000°E)
Time: 01:43:41
(UTC+00:00)
Language:

ATEX - Orbit

View from above orbital plane
View from above orbital plane
View from above satellite
View from above satellite

Ground track
Ground track

The orbit data is extracted from the following two-line orbital elements,

1 25615U 98055C   17116.86946033 0.00000100  00000-0  28730-4 0    09
2 25615  84.9851 184.5275 0008000 294.1029  65.8970 14.44946419    04
Epoch (UTC): 26 April 2017 20:52:01
Eccentricity: 0.0008000
inclination: 84.9851°
perigee height: 736 km
apogee height: 748 km
right ascension of ascending node: 184.5275°
argument of perigee: 294.1029°
revolutions per day: 14.44946419
mean anomaly at epoch: 65.8970°
orbit number at epoch: 0

The dashed part of the orbit path shows where the satellite is in the earth's shadow,  

DLR